Weather History for Talkeetna, AK

Change the Weather History Date:

Thursday, November 1, 2012

  Actual Average Record
Temperature  
Mean Temperature 21 °F -  
Max Temperature 32 °F 32 °F 46 °F (2002)
Min Temperature 10 °F 15 °F -26 °F (1956)
Degree Days  
Heating Degree Days 44    
Moisture  
Dew Point 2 °F    
Average Humidity 39    
Maximum Humidity 67    
Minimum Humidity 17    
Precipitation  
Precipitation 0.00 in - - ()
Sea Level Pressure  
Sea Level Pressure 29.82 in    
Wind  
Wind Speed 5 mph (NNE)    
Max Wind Speed 10 mph    
Max Gust Speed -    
Visibility 10 miles    
Events      
Averages and records for this station are not official NWS values.
T = Trace of Precipitation, MM = Missing Value Source: NWS Daily Summary

Daily Weather History Graph

Daily Weather History Graph

Search for Another Location

Airport:

Trip Planner

Search our weather history database for the weather conditions in past years. The results will help you decide how hot, cold, wet, or windy it might be!

Date:

Astronomy

Nov. 01, 2012 Rise Set
Actual Time 9:35 AM AKDT 5:51 PM AKDT
Civil Twilight 8:46 AM AKDT 6:40 PM AKDT
Nautical Twilight 7:52 AM AKDT 7:34 PM AKDT
Astronomical Twilight 7:00 AM AKDT 8:25 PM AKDT
Moon 7:07 PM AKDT (11/1) 1:05 PM AKDT (11/1)
Length of Visible Light 9h 54m
Length of Day
8h 15m
Waning Gibbous, 92% of the Moon is Illuminated
Nov 1
Waning Gibbous
Nov 6
Last Quarter
Nov 13
New
Nov 20
First Quarter
Nov 28
Full

Hourly Weather History & Observations

Time (AKDT) Temp. Windchill Dew Point Humidity Pressure Visibility Wind Dir Wind Speed Gust Speed Precip Events Conditions
12:53 AM 24.1 °F 18.2 °F 1.0 °F 37% 29.73 in 10.0 mi North 4.6 mph - N/A   Clear
1:53 AM 24.1 °F 16.0 °F 1.0 °F 37% 29.74 in 10.0 mi North 6.9 mph - N/A   Clear
2:53 AM 25.0 °F 18.1 °F 1.9 °F 37% 29.75 in 10.0 mi North 5.8 mph - N/A   Clear
3:53 AM 24.1 °F 17.0 °F 1.9 °F 38% 29.77 in 10.0 mi North 5.8 mph - N/A   Clear
4:53 AM 23.0 °F 17.0 °F 1.9 °F 40% 29.78 in 10.0 mi North 4.6 mph - N/A   Clear
5:53 AM 23.0 °F 18.4 °F 1.9 °F 40% 29.80 in 10.0 mi North 3.5 mph - N/A   Clear
6:53 AM 18.0 °F - 1.9 °F 50% 29.81 in 10.0 mi Calm Calm - N/A   Clear
7:53 AM 10.9 °F 2.9 °F 1.9 °F 67% 29.83 in 10.0 mi NE 4.6 mph - N/A   Clear
8:53 AM 10.9 °F - 1.9 °F 67% 29.86 in 10.0 mi Calm Calm - N/A   Clear
9:53 AM 12.9 °F 3.8 °F 1.9 °F 62% 29.87 in 10.0 mi NE 5.8 mph - N/A   Clear
10:53 AM 19.9 °F 11.1 °F 3.0 °F 48% 29.88 in 10.0 mi NNE 6.9 mph - N/A   Clear
11:53 AM 24.1 °F 17.0 °F 3.0 °F 40% 29.89 in 10.0 mi NE 5.8 mph - N/A   Clear
12:53 PM 26.1 °F 18.4 °F 1.9 °F 35% 29.89 in 10.0 mi NE 6.9 mph - N/A   Clear
1:53 PM 28.9 °F 23.9 °F 1.9 °F 32% 29.89 in 10.0 mi NE 4.6 mph - N/A   Clear
2:53 PM 30.9 °F 25.2 °F 3.0 °F 31% 29.87 in 10.0 mi NNE 5.8 mph - N/A   Clear
3:53 PM 30.9 °F 24.3 °F 3.0 °F 31% 29.86 in 10.0 mi North 6.9 mph - N/A   Clear
4:53 PM 28.9 °F 21.9 °F 3.0 °F 33% 29.85 in 10.0 mi North 6.9 mph - N/A   Clear
5:53 PM 27.0 °F 18.7 °F 3.0 °F 36% 29.84 in 10.0 mi North 8.1 mph - N/A   Clear
6:53 PM 26.1 °F 20.5 °F 3.0 °F 37% 29.84 in 10.0 mi North 4.6 mph - N/A   Clear
7:53 PM 25.0 °F 19.3 °F 3.0 °F 39% 29.83 in 10.0 mi North 4.6 mph - N/A   Clear
8:53 PM 24.1 °F 18.2 °F 1.9 °F 38% 29.82 in 10.0 mi ENE 4.6 mph - N/A   Clear
9:53 PM 26.1 °F 19.4 °F 1.9 °F 35% 29.80 in 10.0 mi North 5.8 mph - N/A   Clear
10:53 PM 25.0 °F 15.5 °F 1.9 °F 37% 29.77 in 10.0 mi NNE 9.2 mph - N/A   Clear
11:53 PM 25.0 °F 14.8 °F 1.9 °F 37% 29.74 in 10.0 mi NNE 10.4 mph - N/A   Clear